ZHONGXING-10

Last updated on Sun Jan 18 2026 00:02:46 GMT+0000 (Coordinated Universal Time)

1 37677U 11026A 26017.65672969 -.00000174 00000+0 00000+0 0 9997 2 37677 0.6575 86.1924 0002667 207.7769 145.1393 1.00273300 53486
UTC large
Height (km)
Speed (km/s)
/
Latitude / Longitude
Inclination (degrees)
Orbital Period (minutes)
Azimuth
Elevation
Range (km)
Doppler Factor

Next 0 passes for location: London (51.5072 / 0.1276)

Sorry there are no passes over London.